Wind_Speed
8 7 5 5 4 3 2 1 2 3 4 5 7 7 7 7 7 7 6 6 6 6 8 9 8 8 9 10 9 9 9 9 9 10 11 11 12 11 10 10 10 9 9
8 8 6 5 4 3 2 1 2 3 3 4 6 6 6 6 7 7 7 7 6 7 7 7 7 9 9 9 9 10 9 9 9 10 11 11 11 11 10 9 8 8 9
9 8 6 5 5 4 3 2 2 2 3 3 6 6 5 5 6 7 7 7 6 6 7 7 7 8 8 8 8 9 9 9 9 9 9 8 9 9 9 8 7 7 7
8 7 7 6 5 4 4 3 2 2 2 3 5 5 4 5 5 6 6 7 6 7 7 7 7 7 7 7 7 8 8 7 7 8 8 7 8 9 9 8 7 7 7
8 8 8 8 6 5 4 3 3 3 2 2 3 4 4 4 4 5 6 6 5 5 5 6 7 6 6 7 7 7 7 7 7 8 7 8 8 8 8 7 7 8 7
9 8 8 9 7 6 5 5 4 4 3 0 2 3 2 3 3 4 5 5 5 5 5 5 6 7 7 7 7 6 6 6 7 7 8 8 8 9 8 7 8 8 8
9 9 9 9 8 7 6 6 5 6 5 3 1 1 1 1 1 3 4 4 4 4 4 4 4 5 6 5 6 6 6 7 6 7 7 8 9 8 8 8 8 8 9
9 9 9 9 9 9 8 6 5 6 5 4 2 0 1 1 1 1 2 2 2 2 3 3 3 4 4 4 5 5 6 6 7 7 8 9 8 7 7 9 8 8 8
9 9 9 9 10 10 9 7 6 6 5 5 3 1 2 1 1 1 1 1 1 2 3 3 3 3 4 4 4 5 6 5 6 6 7 7 7 7 6 6 6 7 7
10 10 10 10 10 10 8 7 5 5 6 5 4 3 2 2 1 1 1 1 0 2 3 3 3 2 2 3 4 4 4 5 5 6 5 6 5 5 5 5 6 7 7
11 11 10 11 11 11 9 7 6 6 6 6 4 3 2 2 1 1 1 1 1 2 2 2 2 2 2 3 5 4 4 4 5 6 5 5 4 4 5 5 5 6 7
11 11 11 11 12 11 11 9 8 7 6 6 5 4 3 2 2 1 1 2 2 3 2 2 3 3 3 3 4 4 4 4 4 5 5 5 5 5 5 5 5 6 6
11 11 12 12 12 12 12 10 10 8 7 7 7 6 4 3 3 2 2 2 2 3 3 4 4 4 3 3 3 3 3 3 3 4 5 5 6 5 5 5 6 6 6
11 11 12 12 12 13 12 11 10 10 9 8 8 8 7 5 3 4 3 3 3 3 4 5 4 4 4 4 4 3 2 2 3 3 4 3 3 4 5 5 6 6 6
10 11 11 12 12 12 11 11 10 10 10 8 8 9 9 8 6 4 4 4 4 4 5 5 5 5 4 4 4 4 4 4 4 4 4 3 3 3 4 4 5 5 6
10 11 12 11 11 11 11 11 11 10 11 11 9 9 9 9 8 6 6 5 5 5 6 6 6 6 5 4 5 6 6 5 4 3 3 3 4 4 3 4 5 5 5
11 11 11 11 10 10 11 11 10 10 10 11 11 11 10 9 9 8 7 6 6 5 5 5 6 6 6 5 6 6 6 5 4 4 3 3 4 4 5 5 6 6 6
11 11 11 11 10 10 10 11 10 10 10 11 11 11 10 9 8 8 7 6 5 5 5 6 5 6 6 6 6 5 5 5 5 5 4 5 5 5 6 7 7 7 7
11 11 11 11 11 10 10 10 10 10 10 10 10 11 11 10 9 8 7 6 6 6 6 6 6 6 6 6 6 5 5 5 6 5 5 5 6 6 7 8 8 8 8
11 11 11 11 10 11 11 10 10 10 10 10 10 10 10 10 9 9 8 7 7 7 7 7 7 7 7 7 6 5 5 6 6 6 6 6 7 8 8 8 8 9 10
12 11 10 10 10 10 11 11 10 10 10 10 10 10 10 10 9 9 8 8 8 8 8 8 8 7 7 7 6 6 6 6 7 7 7 8 8 8 9 9 10 10 11
11 11 10 10 10 10 10 11 11 10 10 10 10 10 9 9 10 10 9 9 9 9 9 9 8 8 8 7 7 7 7 8 8 8 9 9 9 9 10 10 11 11 11
11 11 10 10 10 11 11 11 11 11 11 11 11 11 10 10 10 10 10 9 9 9 9 9 9 8 8 8 8 8 8 9 9 10 10 10 11 11 12 12 11 12 12
10 10 11 11 11 12 12 11 11 11 12 12 12 11 11 11 11 11 11 11 10 10 9 10 9 9 9 9 9 10 11 11 11 12 11 11 12 12 13 13 13 14 14
10 10 10 11 11 12 13 12 12 12 13 13 13 12 12 12 12 12 12 12 11 11 11 11 10 10 10 10 11 11 12 12 13 13 13 13 14 14 15 15 15 15 16
11 11 10 11 11 12 13 13 13 13 13 14 14 13 12 13 13 13 13 12 12 12 12 12 12 11 12 12 12 12 13 13 13 14 15 15 15 16 17 17 17 17 17
Wind_Direction
8 4 347 341 329 322 295 247 231 232 242 240 228 227 226 223 221 218 220 221 228 232 232 231 228 235 235 236 241 249 253 251 252 247 248 247 247 247 250 254 253 251 248
8 7 2 2 350 349 346 296 242 252 249 243 229 231 229 224 223 224 224 223 225 226 226 229 232 237 239 242 237 241 249 258 253 254 254 247 240 248 252 249 250 256 246
9 12 18 15 7 10 6 338 269 261 252 235 221 224 226 222 217 218 221 224 227 230 227 227 231 235 235 235 240 244 248 258 252 255 254 246 240 244 247 247 252 252 243
15 19 24 23 15 18 19 12 334 307 283 254 231 225 223 220 218 222 227 225 226 229 229 229 229 228 228 232 241 247 251 253 250 254 256 255 250 251 249 250 247 245 242
24 28 24 24 24 25 28 16 1 346 321 275 235 225 225 218 215 218 225 224 227 231 232 231 230 233 237 236 238 245 250 253 249 255 261 266 264 259 253 250 249 241 238
27 29 26 21 19 21 22 20 14 6 7 3 206 200 218 218 217 214 218 223 229 230 232 241 241 245 245 242 240 247 253 257 251 262 265 265 267 266 263 259 254 245 238
28 28 28 22 18 19 14 8 18 23 24 34 86 166 177 169 216 213 214 218 223 228 231 241 246 241 243 244 250 263 263 267 259 273 273 272 270 268 260 253 253 245 239
25 26 26 25 23 24 19 17 26 37 35 40 50 95 141 152 196 173 178 182 210 233 240 249 258 255 244 251 256 272 275 275 275 275 277 276 270 276 271 256 246 243 245
26 27 29 28 27 27 31 33 39 43 49 53 52 79 114 111 86 82 103 120 196 255 263 260 276 272 248 244 258 275 281 284 286 282 280 275 274 276 269 256 244 246 252
28 28 28 27 26 26 32 43 47 42 53 63 70 79 85 99 92 73 71 77 237 272 275 270 267 264 247 265 275 284 286 291 296 289 284 283 282 282 276 260 254 253 254
31 30 28 26 27 31 39 49 47 52 60 60 60 61 69 74 77 80 41 12 331 309 288 289 289 300 285 291 297 294 292 290 293 288 289 292 288 290 270 262 257 258 266
32 33 35 37 36 37 43 49 47 49 55 59 55 49 62 57 64 65 29 4 5 353 328 333 345 348 331 311 317 312 308 288 270 283 297 297 288 281 276 273 274 267 270
31 34 34 36 37 40 44 43 46 45 45 50 48 38 40 42 44 40 32 17 2 349 357 10 16 4 351 336 335 329 302 274 273 284 293 286 276 275 285 283 277 282 285
31 30 30 34 36 36 35 37 39 41 44 42 39 36 33 30 27 25 39 19 1 5 22 27 21 17 7 353 352 347 333 313 326 313 320 305 286 284 288 284 282 287 297
29 28 29 30 32 32 33 32 32 37 42 44 40 39 37 31 23 18 24 29 29 25 20 28 27 24 6 343 349 353 356 350 339 351 5 345 319 308 308 300 297 300 296
25 25 26 26 26 27 27 27 27 31 33 35 35 34 34 33 33 31 28 28 29 32 34 31 22 20 6 346 354 2 1 8 2 3 350 334 333 330 329 322 312 313 307
19 19 21 18 19 20 21 21 24 28 31 32 31 32 30 30 33 30 27 29 31 30 31 28 20 15 3 357 2 6 2 5 4 358 1 343 333 334 326 318 313 306 304
18 15 15 14 15 18 18 20 26 28 30 30 31 32 28 25 22 20 24 24 20 17 17 15 6 7 1 359 5 10 13 8 0 358 357 345 334 329 321 313 307 302 298
16 14 14 11 14 18 20 22 22 26 28 27 27 28 27 25 24 22 19 14 8 7 5 3 355 354 351 352 359 5 5 5 359 350 342 335 327 320 320 314 306 303 300
15 13 12 13 17 17 18 18 19 20 21 22 23 21 19 20 20 18 13 8 2 358 354 350 346 343 339 339 345 352 344 352 348 346 338 328 322 318 319 314 311 304 301
12 11 11 15 19 19 18 16 18 18 16 16 16 19 17 15 13 10 7 4 2 359 356 348 340 331 328 327 330 334 332 337 338 339 334 326 319 319 319 316 313 308 302
10 12 14 15 17 16 14 12 11 11 10 9 6 6 6 6 4 359 357 354 353 350 349 347 342 336 332 332 331 329 331 328 331 328 328 327 325 321 312 311 311 309 306
5 6 7 10 10 9 7 4 3 2 0 358 359 358 357 356 355 352 350 346 342 342 345 343 338 332 329 328 326 323 321 322 323 321 322 321 320 316 311 308 306 307 307
357 359 2 5 4 2 1 359 356 354 354 352 353 352 350 348 348 346 345 342 337 335 333 331 333 332 329 325 319 316 313 313 316 319 315 315 316 316 310 306 306 305 302
348 350 354 355 353 352 354 353 350 348 348 348 346 345 346 344 342 339 337 337 333 331 328 325 326 325 325 320 315 314 314 311 311 312 311 310 311 309 307 306 305 305 302
337 339 341 343 343 342 344 347 348 346 344 345 343 340 339 338 338 336 332 329 328 328 327 326 324 319 317 317 314 312 312 308 308 308 308 307 306 304 302 304 302 301 300
Height
5874 5872 5870 5869 5868 5868 5867 5867 5867 5867 5867 5867 5867 5868 5868 5868 5869 5870 5871 5871 5872 5872 5872 5873 5874 5874 5875 5875 5876 5877 5877 5878 5878 5877 5877 5877 5878 5879 5881 5881 5881 5882 5882
5874 5872 5870 5870 5868 5868 5867 5867 5867 5867 5866 5866 5866 5867 5867 5868 5868 5869 5870 5870 5871 5871 5872 5872 5873 5873 5874 5874 5874 5875 5875 5876 5876 5875 5873 5872 5874 5877 5878 5879 5880 5879 5880
5875 5873 5871 5870 5869 5868 5868 5867 5867 5866 5865 5865 5865 5866 5866 5867 5868 5868 5869 5869 5870 5870 5871 5871 5872 5872 5873 5873 5874 5874 5874 5874 5874 5874 5872 5871 5873 5875 5877 5878 5878 5879 5879
5875 5874 5872 5871 5870 5869 5868 5867 5866 5865 5865 5864 5864 5865 5866 5866 5867 5868 5868 5869 5869 5870 5870 5870 5871 5871 5872 5872 5873 5873 5873 5874 5873 5873 5873 5873 5874 5875 5876 5877 5877 5878 5879
5876 5875 5873 5872 5871 5869 5868 5867 5866 5865 5864 5863 5863 5864 5865 5866 5867 5867 5868 5868 5869 5869 5869 5870 5870 5870 5871 5871 5871 5872 5872 5873 5873 5873 5873 5873 5874 5874 5875 5875 5876 5877 5878
5878 5876 5875 5873 5871 5870 5868 5867 5866 5864 5863 5863 5863 5864 5865 5865 5866 5867 5867 5868 5868 5869 5869 5870 5870 5870 5870 5870 5871 5871 5871 5872 5872 5872 5873 5872 5873 5873 5874 5875 5875 5876 5876
5879 5877 5876 5874 5872 5870 5869 5867 5866 5864 5863 5863 5863 5864 5865 5865 5866 5866 5867 5867 5867 5868 5868 5869 5869 5869 5869 5870 5870 5871 5871 5871 5871 5871 5872 5872 5872 5872 5872 5873 5874 5874 5875
5880 5879 5877 5875 5873 5871 5870 5868 5867 5865 5864 5863 5863 5864 5865 5865 5866 5866 5867 5867 5867 5867 5867 5868 5868 5869 5869 5869 5869 5870 5870 5870 5870 5871 5870 5871 5871 5871 5871 5871 5872 5873 5874
5881 5880 5878 5876 5875 5873 5871 5869 5868 5867 5866 5865 5865 5864 5865 5866 5867 5867 5867 5867 5867 5867 5867 5868 5868 5868 5868 5868 5869 5869 5869 5869 5869 5869 5869 5869 5869 5869 5870 5870 5871 5872 5872
5882 5881 5879 5878 5876 5874 5872 5871 5870 5869 5868 5867 5867 5866 5867 5867 5867 5867 5867 5867 5867 5866 5866 5866 5867 5867 5867 5868 5868 5868 5868 5868 5868 5868 5868 5868 5868 5869 5869 5869 5870 5870 5871
5884 5882 5881 5879 5877 5875 5873 5872 5871 5870 5869 5869 5868 5868 5868 5868 5868 5868 5867 5867 5866 5865 5865 5866 5866 5867 5867 5867 5867 5867 5867 5867 5867 5867 5867 5867 5868 5868 5869 5868 5868 5869 5870
5886 5884 5883 5881 5879 5877 5875 5874 5873 5872 5871 5870 5870 5869 5868 5868 5868 5868 5868 5867 5866 5865 5865 5866 5866 5867 5867 5867 5867 5867 5866 5866 5866 5866 5865 5866 5866 5867 5868 5868 5868 5868 5868
5887 5886 5884 5883 5881 5880 5878 5877 5875 5874 5873 5872 5871 5870 5869 5869 5869 5869 5869 5867 5867 5866 5866 5866 5866 5866 5866 5867 5867 5866 5866 5866 5865 5865 5864 5864 5865 5866 5866 5867 5867 5867 5867
5889 5888 5886 5885 5883 5882 5880 5879 5878 5876 5875 5874 5873 5872 5871 5870 5870 5870 5869 5869 5868 5867 5867 5867 5867 5867 5867 5867 5867 5866 5866 5865 5865 5863 5863 5864 5864 5865 5865 5866 5866 5867 5867
5891 5889 5888 5886 5885 5884 5882 5881 5880 5878 5877 5876 5875 5874 5873 5871 5870 5870 5870 5869 5869 5868 5868 5868 5868 5868 5868 5867 5867 5866 5866 5866 5865 5864 5864 5864 5864 5864 5865 5865 5865 5865 5866
5892 5891 5890 5888 5887 5886 5884 5883 5882 5880 5879 5877 5876 5875 5874 5873 5872 5871 5871 5870 5870 5870 5869 5869 5869 5868 5868 5867 5867 5866 5866 5866 5866 5865 5865 5864 5864 5864 5864 5864 5864 5864 5864
5894 5893 5891 5890 5888 5887 5886 5884 5883 5882 5880 5879 5878 5877 5876 5874 5873 5873 5872 5872 5871 5871 5870 5870 5870 5869 5868 5868 5867 5866 5866 5866 5866 5865 5865 5864 5864 5864 5864 5863 5863 5863 5863
5895 5894 5893 5891 5890 5888 5887 5886 5885 5883 5882 5881 5880 5878 5877 5876 5875 5874 5874 5873 5872 5872 5871 5871 5870 5870 5869 5868 5867 5867 5866 5866 5866 5865 5864 5864 5864 5864 5863 5863 5862 5862 5861
5896 5895 5894 5892 5891 5889 5888 5887 5886 5885 5884 5882 5881 5880 5879 5877 5876 5875 5875 5874 5873 5872 5872 5871 5870 5870 5869 5869 5867 5867 5866 5866 5866 5865 5864 5864 5863 5863 5862 5862 5861 5860 5860
5897 5896 5895 5893 5892 5891 5889 5888 5887 5886 5885 5884 5882 5881 5880 5878 5877 5877 5876 5875 5874 5873 5872 5871 5870 5870 5869 5868 5868 5867 5866 5866 5865 5864 5864 5863 5862 5862 5861 5860 5859 5858 5858
5898 5897 5896 5894 5893 5892 5891 5890 5889 5887 5886 5885 5884 5882 5881 5880 5879 5878 5876 5875 5874 5873 5872 5871 5870 5869 5869 5868 5867 5867 5866 5865 5864 5863 5863 5862 5861 5860 5860 5859 5857 5856 5856
5899 5898 5896 5895 5894 5893 5892 5891 5890 5888 5887 5886 5885 5883 5882 5880 5879 5878 5877 5875 5874 5873 5872 5871 5870 5869 5868 5867 5867 5866 5865 5865 5863 5862 5862 5861 5859 5858 5858 5856 5856 5854 5853
5900 5899 5897 5896 5895 5894 5893 5891 5890 5889 5888 5886 5885 5884 5882 5881 5879 5878 5876 5875 5874 5873 5872 5871 5869 5868 5868 5867 5866 5865 5864 5863 5862 5861 5860 5859 5857 5856 5855 5854 5853 5852 5850
5901 5899 5898 5897 5896 5895 5893 5892 5890 5889 5888 5886 5885 5884 5882 5880 5879 5878 5876 5875 5874 5873 5871 5870 5869 5868 5867 5866 5864 5863 5862 5861 5860 5860 5858 5857 5856 5854 5853 5851 5849 5849 5847
5901 5899 5898 5897 5896 5895 5893 5892 5890 5889 5888 5886 5885 5883 5882 5880 5878 5877 5876 5874 5873 5872 5870 5869 5868 5867 5865 5864 5863 5862 5860 5859 5858 5857 5856 5854 5853 5851 5849 5848 5847 5846 5844
5900 5899 5898 5897 5896 5895 5893 5891 5890 5889 5887 5886 5884 5883 5881 5880 5878 5876 5875 5873 5872 5870 5869 5868 5866 5865 5864 5862 5861 5859 5858 5857 5855 5854 5853 5851 5849 5848 5846 5844 5843 5842 5840